[[{"header":{"parameterUnit":"m.s-1","parameterCategory":2,"la1":30.2992,"la2":30.254,"lo1":-89.0895,"lo2":-89.0443,"dy":0.0025,"dx":0.0025,"nx":19,"ny":19,"refTime":"2026-03-09T03:00:00:Z","depth":"0","parameterNumber":2,"parameterNumberName":"U-component_of_CURRENTS"},"data":[0,0,0,0.2076,0.2078,0.2138,0.2138,0.2139,0.2139,0,0,0,0,0,0,0,0,0,0,0,0.205,0.205,0.2076,0.2079,0.2138,0.2138,0.2139,0.2139,0,0,0,0,0,0,0,0,0,0,0,0.2049,0.205,0.2051,0.2079,0.2138,0.2138,0.2139,0.2108,0,0,0,0,0,0,0,0,0,0,0.2058,0.2034,0.205,0.2051,0.2079,0.2138,0.2138,0.2108,0.211,0.2096,0,0.2117,0,0.2138,0.2139,0.2139,0,0,0,0.2061,0.2032,0.2069,0.2051,0.208,0.2138,0.2106,0.211,0.2113,0.2099,0.2118,0.2118,0.2138,0.2139,0.2139,0.2141,0.2141,0,0,0.2058,0.2035,0.2068,0.2072,0.211,0.2105,0.2108,0.2112,0.2107,0.2118,0.2119,0.2138,0.2139,0.2139,0.2141,0.2141,0,0,0,0.206,0.2033,0.2071,0.2071,0.2094,0.2107,0.2111,0.2106,0.2126,0.2119,0.2138,0.2139,0.2139,0.2141,0.2141,0.2111,0,0,0,0.2057,0.2036,0.207,0.2053,0.2094,0.2107,0.2104,0.2125,0.2127,0.2138,0.2139,0.2139,0.2141,0.2141,0.2111,0.2065,0,0,0,0.2044,0.2034,0.2051,0.2052,0.209,0.2109,0.2127,0.2126,0.2138,0.2139,0.2139,0.2141,0.2141,0.2112,0.2068,0.2061,0,0,0,0.2005,0.2,0.205,0.2053,0.209,0.2105,0.2127,0.2135,0.2134,0.2139,0.2141,0.2141,0.2112,0.2069,0.2062,0.204,0.2032,0,0,0.197,0.1995,0.1999,0.2046,0.2048,0.2095,0.209,0.2109,0.213,0.2131,0.2132,0.2111,0.2068,0.2061,0.2044,0.2035,0,0,0,0.1969,0.1965,0.1976,0.1998,0.2036,0.2051,0.2087,0.2104,0.2122,0.2136,0.2121,0.2094,0.2091,0.2081,0.2075,0.1999,0.2141,0.2141,0.2141,0.1841,0.1895,0.1885,0.1944,0.1961,0.2019,0.203,0.2062,0.2097,0.211,0.2079,0.2059,0.2049,0.2044,0.1967,0.2107,0.2106,0.2106,0.2106,0.176,0.1761,0.1816,0.1826,0.1881,0.1891,0.1966,0.2009,0.2028,0.2061,0.2062,0.206,0.2035,0.1956,0.2104,0.2105,0.2105,0.2105,0.2105,0.166,0.1675,0.1693,0.1721,0.174,0.1819,0.1849,0.1915,0.1975,0.1974,0.1987,0.1987,0.1909,0.1992,0.1991,0.1991,0.1991,0.1991,0.1991,0.1565,0.1589,0.1585,0.1615,0.1636,0.1686,0.1779,0.1823,0.1886,0.1928,0.1929,0.1887,0.2024,0.2019,0.1987,0.1988,0.1988,0.1989,0.1989,0.1518,0.1506,0.1496,0.1507,0.1549,0.155,0.1662,0.1743,0.1796,0.1817,0.1792,0.1917,0.192,0.1926,0.1919,0.1863,0.1863,0.1863,0.1863,0.1475,0.1472,0.1443,0.1439,0.1453,0.1493,0.15,0.1582,0.1662,0.1664,0.1697,0.1711,0.1719,0.1711,0.1722,0.1712,0.1604,0.1603,0.1603,0.1481,0.1458,0.1426,0.1393,0.1405,0.1417,0.137,0.1368,0.1492,0.1585,0.1591,0.1602,0.1618,0.1638,0.1627,0.1648,0.1632,0,0]},{"header":{"parameterUnit":"m.s-1","parameterCategory":2,"la1":30.2992,"la2":30.254,"lo1":-89.0895,"lo2":-89.0443,"dy":0.0025,"dx":0.0025,"nx":19,"ny":19,"refTime":"2026-03-09T03:00:00:Z","depth":"0","parameterNumber":3,"parameterNumberName":"V-component_of_CURRENTS"},"data":[0,0,0,0.0136,0.0135,0.0097,0.0097,0.0069,0.0069,0,0,0,0,0,0,0,0,0,0,0,0.0151,0.015,0.0136,0.0135,0.0097,0.0097,0.0069,0.0069,0,0,0,0,0,0,0,0,0,0,0,0.0151,0.015,0.015,0.0134,0.0097,0.0097,0.0069,0.0093,0,0,0,0,0,0,0,0,0,0,0.0128,0.0157,0.0151,0.015,0.0134,0.0097,0.0097,0.0094,0.0092,0.0091,0,0.0083,0,0.0073,0.0067,0.0067,0,0,0,0.0138,0.0159,0.0128,0.015,0.0134,0.0097,0.0115,0.0093,0.009,0.0088,0.0082,0.0081,0.0072,0.0067,0.0067,0.0073,0.0073,0,0,0.014,0.0165,0.013,0.0126,0.0121,0.0116,0.0114,0.0091,0.01,0.0082,0.008,0.0072,0.0067,0.0067,0.0073,0.0073,0,0,0,0.0144,0.0166,0.0136,0.0128,0.0118,0.0115,0.0112,0.0101,0.0085,0.008,0.0072,0.0067,0.0066,0.0072,0.0073,0.0159,0,0,0,0.0145,0.0168,0.0137,0.0154,0.0118,0.0111,0.0123,0.0086,0.0083,0.0072,0.0067,0.0066,0.0072,0.0073,0.0156,0.02,0,0,0,0.0153,0.0169,0.0159,0.0155,0.0134,0.0111,0.0095,0.0086,0.0078,0.0067,0.0066,0.0072,0.0073,0.0153,0.0195,0.0237,0,0,0,0.0187,0.0201,0.016,0.018,0.0135,0.0133,0.0095,0.0091,0.0085,0.0067,0.0072,0.0073,0.0152,0.0192,0.0234,0.0314,0.0335,0,0,0.0226,0.0207,0.0218,0.018,0.0195,0.0138,0.0172,0.0138,0.0093,0.0081,0.0081,0.0157,0.0195,0.0236,0.0349,0.037,0,0,0,0.0245,0.0251,0.025,0.0247,0.0224,0.0225,0.0183,0.0169,0.0151,0.009,0.0145,0.0166,0.019,0.0231,0.0247,0.0234,0.0076,0.0075,0.0075,0.0331,0.031,0.0338,0.0312,0.0311,0.0285,0.0288,0.0257,0.0204,0.0204,0.0227,0.0306,0.0351,0.0364,0.0349,0.0212,0.0213,0.0213,0.0213,0.0398,0.0411,0.0399,0.0417,0.0402,0.0419,0.0394,0.0362,0.036,0.0298,0.0316,0.0308,0.0387,0.0365,0.0218,0.0217,0.0217,0.0216,0.0216,0.045,0.0453,0.0465,0.0488,0.0521,0.0503,0.0548,0.0503,0.0446,0.0461,0.0481,0.048,0.0468,0.0462,0.0463,0.0463,0.0463,0.0464,0.0464,0.0493,0.0504,0.0541,0.0561,0.0589,0.0633,0.063,0.0638,0.0626,0.0585,0.0585,0.0501,0.0382,0.038,0.047,0.0469,0.0468,0.0467,0.0467,0.0544,0.055,0.0602,0.0638,0.071,0.0796,0.079,0.0836,0.0814,0.0835,0.0715,0.0646,0.0626,0.0612,0.0616,0.0761,0.0761,0.0761,0.0761,0.0581,0.0585,0.0666,0.0733,0.0815,0.0876,0.1005,0.1025,0.0947,0.0899,0.0828,0.0788,0.0777,0.076,0.0744,0.0747,0.0922,0.0922,0.0922,0.0622,0.0639,0.0708,0.0767,0.0863,0.0977,0.1112,0.118,0.1046,0.0922,0.0798,0.0791,0.072,0.0703,0.066,0.0638,0.0636,0,0]}],[{"header":{"parameterUnit":"m.s-1","parameterCategory":2,"la1":30.2992,"la2":30.254,"lo1":-89.0895,"lo2":-89.0443,"dy":0.0025,"dx":0.0025,"nx":19,"ny":19,"refTime":"2026-03-09T03:00:00:Z","depth":"2","parameterNumber":2,"parameterNumberName":"U-component_of_CURRENTS"},"data":[0,0,0,0.1447,0.1448,0.1483,0.1483,0.153,0.1531,0,0,0,0,0,0,0,0,0,0,0,0.1429,0.143,0.1447,0.1448,0.1483,0.1483,0.153,0.1531,0,0,0,0,0,0,0,0,0,0,0,0.1429,0.143,0.143,0.1448,0.1483,0.1483,0.153,0.1502,0,0,0,0,0,0,0,0,0,0,0.1468,0.1458,0.143,0.143,0.1448,0.1483,0.1483,0.1501,0.1504,0.1516,0,0.1521,0,0.1531,0.1534,0.1535,0,0,0,0.1444,0.1455,0.1461,0.143,0.1448,0.1483,0.1466,0.1503,0.1506,0.1521,0.1522,0.1524,0.1532,0.1535,0.1535,0.1601,0.1601,0,0,0.1443,0.144,0.1458,0.1463,0.1457,0.1465,0.1467,0.1505,0.1511,0.1522,0.1525,0.1533,0.1535,0.1536,0.16,0.1601,0,0,0,0.1439,0.1439,0.1444,0.1461,0.147,0.1466,0.1469,0.1509,0.1509,0.1526,0.1534,0.1535,0.1536,0.16,0.16,0.1626,0,0,0,0.1438,0.1437,0.1443,0.1443,0.1469,0.1491,0.1472,0.1506,0.1511,0.1533,0.1535,0.1537,0.16,0.16,0.1624,0.1606,0,0,0,0.1428,0.1437,0.1439,0.1442,0.1459,0.1491,0.1494,0.1508,0.1517,0.1535,0.1537,0.1599,0.16,0.1623,0.1605,0.1621,0,0,0,0.1426,0.1426,0.1439,0.1448,0.1459,0.1482,0.1493,0.152,0.1536,0.1536,0.16,0.16,0.1623,0.1605,0.162,0.1567,0.1567,0,0,0.1422,0.1426,0.1431,0.1443,0.1461,0.1477,0.1514,0.1544,0.1553,0.1586,0.1588,0.1625,0.1605,0.1621,0.1611,0.161,0,0,0,0.1426,0.1428,0.1436,0.1454,0.1475,0.1507,0.154,0.1562,0.1604,0.1567,0.1633,0.1619,0.1629,0.1596,0.1595,0.1604,0.1604,0.1604,0.1604,0.1409,0.1425,0.1435,0.146,0.1483,0.1537,0.1566,0.1604,0.162,0.1648,0.1648,0.1683,0.1649,0.1647,0.1672,0.1672,0.1672,0.1672,0.1672,0.1396,0.1396,0.1431,0.1445,0.149,0.1529,0.16,0.1631,0.1678,0.168,0.1689,0.1633,0.1647,0.1674,0.1674,0.1674,0.1673,0.1673,0.1673,0.1369,0.1371,0.1389,0.1416,0.1459,0.1523,0.1572,0.1631,0.168,0.1697,0.1666,0.1665,0.1682,0.1714,0.1714,0.1714,0.1714,0.1714,0.1714,0.1331,0.1349,0.1354,0.1383,0.1406,0.146,0.1552,0.1594,0.1646,0.1668,0.1668,0.1696,0.1695,0.1684,0.1715,0.1715,0.1715,0.1715,0.1715,0.13,0.1306,0.1306,0.1321,0.1361,0.1365,0.1469,0.1533,0.159,0.1602,0.1656,0.1658,0.1638,0.1638,0.1625,0.1639,0.1639,0.1639,0.1639,0.1276,0.1279,0.1272,0.1276,0.1293,0.1324,0.1318,0.136,0.1462,0.1484,0.149,0.1468,0.1475,0.1444,0.1449,0.1432,0.1395,0.1394,0.1394,0.1269,0.1265,0.1246,0.1239,0.1255,0.1257,0.1189,0.1118,0.1203,0.1382,0.1424,0.1627,0.1612,0.1616,0.1583,0.1585,0.1563,0,0]},{"header":{"parameterUnit":"m.s-1","parameterCategory":2,"la1":30.2992,"la2":30.254,"lo1":-89.0895,"lo2":-89.0443,"dy":0.0025,"dx":0.0025,"nx":19,"ny":19,"refTime":"2026-03-09T03:00:00:Z","depth":"2","parameterNumber":3,"parameterNumberName":"V-component_of_CURRENTS"},"data":[0,0,0,0.0259,0.0258,0.0229,0.0229,0.0188,0.0188,0,0,0,0,0,0,0,0,0,0,0,0.0274,0.0274,0.0259,0.0258,0.0229,0.0229,0.0188,0.0188,0,0,0,0,0,0,0,0,0,0,0,0.0274,0.0274,0.0274,0.0258,0.0229,0.0229,0.0189,0.021,0,0,0,0,0,0,0,0,0,0,0.0239,0.0253,0.0274,0.0274,0.0258,0.0229,0.0229,0.0211,0.0209,0.0202,0,0.0204,0,0.0194,0.0186,0.0185,0,0,0,0.0255,0.0255,0.0249,0.0274,0.0258,0.0229,0.0241,0.021,0.0207,0.0199,0.0203,0.0201,0.0193,0.0185,0.0185,0.0183,0.0184,0,0,0.0256,0.0265,0.0251,0.0247,0.0258,0.0242,0.024,0.0208,0.0208,0.0203,0.02,0.0193,0.0185,0.0185,0.0183,0.0183,0,0,0,0.0263,0.0266,0.026,0.0249,0.0244,0.0241,0.0239,0.021,0.0208,0.02,0.0192,0.0185,0.0184,0.0183,0.0183,0.0234,0,0,0,0.0264,0.027,0.0261,0.0265,0.0245,0.0226,0.0241,0.0211,0.0207,0.0193,0.0185,0.0184,0.0183,0.0183,0.0232,0.0262,0,0,0,0.0274,0.0271,0.0271,0.0266,0.0255,0.0226,0.0223,0.0209,0.0202,0.0185,0.0184,0.0182,0.0183,0.023,0.0259,0.0286,0,0,0,0.0279,0.0289,0.0271,0.0281,0.0255,0.0256,0.0223,0.0213,0.0202,0.0185,0.0183,0.0183,0.023,0.0257,0.0284,0.0328,0.0341,0,0,0.0296,0.0291,0.0298,0.0281,0.0292,0.0259,0.0272,0.0239,0.0209,0.0191,0.0191,0.0233,0.0259,0.0285,0.0362,0.0375,0,0,0,0.0306,0.0312,0.0313,0.0314,0.0305,0.0306,0.0271,0.026,0.0242,0.0205,0.0231,0.0246,0.0261,0.0282,0.0292,0.0186,0.0186,0.0186,0.0186,0.0337,0.0334,0.0352,0.035,0.035,0.0336,0.0335,0.0312,0.0275,0.0276,0.0285,0.0339,0.0363,0.0371,0.0278,0.0279,0.0279,0.0279,0.0279,0.0374,0.0389,0.0387,0.0406,0.0404,0.0413,0.0397,0.0376,0.0371,0.0332,0.0344,0.0333,0.0385,0.0283,0.0282,0.0282,0.0281,0.0281,0.0281,0.0404,0.0412,0.0424,0.0449,0.0476,0.0469,0.0503,0.0472,0.0427,0.0435,0.0446,0.0446,0.0374,0.0438,0.0438,0.0438,0.0439,0.0439,0.0439,0.0431,0.0443,0.0474,0.0497,0.0524,0.0562,0.0564,0.0568,0.055,0.0513,0.0513,0.0393,0.0387,0.0383,0.0443,0.0442,0.0442,0.0441,0.0441,0.0465,0.0476,0.0519,0.055,0.0617,0.0683,0.0681,0.07,0.068,0.0685,0.0553,0.0548,0.0537,0.0528,0.0527,0.062,0.062,0.062,0.0621,0.0491,0.0497,0.0566,0.0624,0.0694,0.0743,0.082,0.0807,0.0738,0.0673,0.0671,0.0642,0.0635,0.0625,0.0614,0.0613,0.0729,0.0729,0.0729,0.0515,0.0534,0.0588,0.0646,0.073,0.0813,0.0882,0.0859,0.0745,0.0731,0.0659,0.0634,0.0584,0.0575,0.055,0.0537,0.053,0,0]}],[{"header":{"parameterUnit":"m.s-1","parameterCategory":2,"la1":30.2992,"la2":30.254,"lo1":-89.0895,"lo2":-89.0443,"dy":0.0025,"dx":0.0025,"nx":19,"ny":19,"refTime":"2026-03-09T03:00:00:Z","depth":"4","parameterNumber":2,"parameterNumberName":"U-component_of_CURRENTS"},"data":[0,0,0,0.091,0.0912,0.0992,0.0992,0.1059,0.1059,0,0,0,0,0,0,0,0,0,0,0,0.0887,0.0887,0.091,0.0912,0.0992,0.0992,0.1058,0.1059,0,0,0,0,0,0,0,0,0,0,0,0.0886,0.0887,0.0888,0.0912,0.0992,0.0992,0.1058,0.1007,0,0,0,0,0,0,0,0,0,0,0.0934,0.0925,0.0887,0.0888,0.0912,0.0991,0.0992,0.1005,0.101,0.1012,0,0.1031,0,0.1044,0.1063,0.1063,0,0,0,0.0912,0.092,0.0934,0.0888,0.0913,0.0991,0.0956,0.1008,0.1014,0.1019,0.1032,0.1035,0.1045,0.1063,0.1063,0.1137,0.1138,0,0,0.0908,0.0907,0.093,0.0938,0.0942,0.0953,0.0958,0.1012,0.1026,0.1032,0.1036,0.1046,0.1063,0.1064,0.1137,0.1137,0,0,0,0.0895,0.0904,0.0918,0.0935,0.0951,0.0955,0.0961,0.1023,0.1026,0.1037,0.1047,0.1064,0.1064,0.1137,0.1137,0.1184,0,0,0,0.0892,0.0896,0.0916,0.0917,0.0951,0.0995,0.0971,0.1022,0.1029,0.1047,0.1064,0.1065,0.1136,0.1137,0.1182,0.1179,0,0,0,0.0881,0.0895,0.0905,0.0916,0.0949,0.0994,0.1001,0.1024,0.1035,0.1063,0.1065,0.1136,0.1137,0.118,0.1176,0.1201,0,0,0,0.0876,0.0895,0.0906,0.0933,0.0949,0.0991,0.1001,0.1045,0.1071,0.1064,0.1136,0.1137,0.118,0.1175,0.1199,0.1037,0,0,0,0.089,0.0897,0.091,0.0921,0.096,0.098,0.1038,0.108,0.1085,0.1115,0.1117,0.1183,0.1176,0.12,0.1096,0,0,0,0,0.0908,0.0919,0.0933,0.0962,0.0992,0.104,0.1081,0.1105,0.1158,0.1106,0.119,0.1183,0.1197,0.1098,0.1142,0.1142,0.1142,0.1141,0.1141,0.0924,0.0936,0.0963,0.0991,0.1026,0.1091,0.1132,0.1173,0.1183,0.1219,0.1228,0.1283,0.1182,0.1247,0.1247,0.1247,0.1248,0.1248,0.1248,0.0933,0.0938,0.0979,0.1009,0.1063,0.1119,0.1194,0.1225,0.1286,0.1277,0.129,0.1162,0.1253,0.1252,0.1251,0.1251,0.125,0.125,0.125,0.092,0.0922,0.0957,0.1005,0.1071,0.1141,0.1197,0.1263,0.1312,0.1337,0.1233,0.1309,0.1297,0.1356,0.1356,0.1356,0.1356,0.1356,0.1357,0.0882,0.0914,0.0943,0.0996,0.1036,0.1103,0.1203,0.1238,0.1304,0.1251,0.1351,0.1319,0.1316,0.1303,0.1358,0.1358,0.1358,0.1358,0.1357,0.0842,0.0873,0.09,0.0937,0.1006,0.1034,0.1143,0.1166,0.1195,0.1181,0.1204,0.1211,0.1173,0.1173,0.1153,0.1167,0.1165,0.1163,0,0.0815,0.083,0.0868,0.09,0.0923,0.0991,0.0984,0.1035,0.1089,0.1052,0.1213,0.1239,0.1243,0.12,0.1197,0.1173,0,0,0,0.0794,0.0812,0.082,0.0857,0.0876,0.0902,0.0974,0.0953,0.1077,0.1049,0.1115,0.1128,0.1271,0.1364,0.1321,0.1317,0.1294,0,0]},{"header":{"parameterUnit":"m.s-1","parameterCategory":2,"la1":30.2992,"la2":30.254,"lo1":-89.0895,"lo2":-89.0443,"dy":0.0025,"dx":0.0025,"nx":19,"ny":19,"refTime":"2026-03-09T03:00:00:Z","depth":"4","parameterNumber":3,"parameterNumberName":"V-component_of_CURRENTS"},"data":[0,0,0,0.0293,0.0293,0.0289,0.0289,0.0273,0.0273,0,0,0,0,0,0,0,0,0,0,0,0.0299,0.0299,0.0293,0.0293,0.0289,0.0289,0.0273,0.0273,0,0,0,0,0,0,0,0,0,0,0,0.0299,0.0299,0.0299,0.0293,0.0289,0.0289,0.0273,0.0278,0,0,0,0,0,0,0,0,0,0,0.0283,0.0289,0.0299,0.0299,0.0293,0.0289,0.0289,0.0278,0.0278,0.0273,0,0.0279,0,0.0275,0.0272,0.0272,0,0,0,0.029,0.029,0.0291,0.0299,0.0293,0.0289,0.029,0.0278,0.0277,0.0272,0.0278,0.0278,0.0275,0.0272,0.0272,0.0283,0.0284,0,0,0.029,0.0294,0.0291,0.0291,0.03,0.029,0.029,0.0278,0.0279,0.0278,0.0277,0.0274,0.0272,0.0272,0.0283,0.0283,0,0,0,0.0293,0.0294,0.0295,0.0291,0.0291,0.029,0.029,0.0279,0.0281,0.0277,0.0274,0.0272,0.0271,0.0283,0.0283,0.0314,0,0,0,0.0293,0.0296,0.0296,0.0297,0.0291,0.0286,0.0292,0.0282,0.028,0.0274,0.0272,0.0271,0.0283,0.0283,0.0313,0.0333,0,0,0,0.0298,0.0296,0.0299,0.0298,0.0297,0.0286,0.0286,0.0281,0.0278,0.0272,0.0271,0.0282,0.0283,0.0312,0.033,0.0343,0,0,0,0.0297,0.0305,0.0299,0.0309,0.0297,0.0306,0.0286,0.0288,0.0286,0.0271,0.0283,0.0283,0.0311,0.0329,0.0342,0.033,0,0,0,0.0306,0.0307,0.0313,0.0307,0.0322,0.0306,0.0322,0.0308,0.0292,0.0285,0.0285,0.0313,0.033,0.0343,0.0364,0,0,0,0,0.0315,0.0322,0.0325,0.0333,0.0335,0.0343,0.0328,0.0324,0.0319,0.0294,0.0316,0.0326,0.0333,0.0322,0.0286,0.0286,0.0286,0.0286,0.0286,0.0328,0.0333,0.0351,0.0359,0.0366,0.0368,0.0371,0.0363,0.0343,0.0347,0.0353,0.0388,0.0378,0.0351,0.0352,0.0352,0.0352,0.0352,0.0352,0.0349,0.0363,0.0374,0.0395,0.0406,0.042,0.0417,0.0407,0.0406,0.0385,0.039,0.0358,0.0355,0.0354,0.0354,0.0354,0.0353,0.0353,0.0353,0.0363,0.0372,0.039,0.0422,0.0454,0.0461,0.0488,0.0473,0.0443,0.0447,0.0429,0.041,0.0405,0.0448,0.0448,0.0448,0.0448,0.0448,0.0449,0.037,0.0388,0.042,0.0453,0.0483,0.052,0.0532,0.0529,0.0502,0.047,0.0459,0.042,0.0417,0.0411,0.0451,0.0451,0.045,0.045,0.045,0.038,0.0398,0.0438,0.0473,0.054,0.0564,0.0583,0.056,0.0553,0.0527,0.0475,0.0473,0.046,0.0456,0.045,0.0504,0.0504,0.0504,0,0.0388,0.0398,0.0459,0.0512,0.0565,0.0593,0.0594,0.0587,0.0539,0.0524,0.0547,0.049,0.0487,0.0474,0.047,0.0464,0,0,0,0.0394,0.0413,0.0454,0.0514,0.0575,0.0587,0.0594,0.0573,0.0548,0.0536,0.0504,0.0504,0.05,0.0458,0.0434,0.043,0.0419,0,0]}]]